sat.trackr.live / text

‹ back to catalog

KAKUSHIN RISING OBJECT B

NORAD 68793 · 2026-088B

PAYLOAD ACTIVE UNKNOWN

§ Identity

Operator
Country
JPN
Launch date
2026-04-23
Launch site
RLLB
Launch vehicle
Mass (kg)
RCS (m²)

External: N2YO · Heavens-Above · Gunter

§ Orbital elements

Epoch: 2026-05-24T23:16:47.117856Z

Period
95.56 min
Inclination
97.5033°
Eccentricity
0.0015796
Mean motion
15.06854399 rev/d
Perigee alt
534.9 km
Apogee alt
556.8 km
Semi-major
6,924.0 km
B*
2.6316e-4
RAAN
294.8303°
Arg perigee
178.0709°
Mean anomaly
182.0582°
Rev number
479

§ Raw data

KAKUSHIN RISING OBJECT B1 68793U 26088B   26144.96998979  .00003874  00000+0  26316-3 0  99922 68793  97.5033 294.8303 0015796 178.0709 182.0582 15.06854399  4797

JSON: /api/v1/satellites/68793 · /tle

For live sub-satellite position, see the globe view (requires WebGL).

§ Visibility from observer

Set your observer location to see the next 7 days of passes ≥ 10°. The values pass through the URL so the page stays shareable.

No JS? Fill the form by hand. The geolocation button needs JavaScript.